Regional Weather Roundup
Issued by NWS State College, PA

Home | Current Version | Previous Version | Text Only | Print | Product List | Glossary On
Versions: 1 2 3 4 5 6 7 8 9 10 11 12 13 14 15 16 17 18 19 20 21 22 23 24 25 26 27 28 29 30 31 32 33 34 35 36 37 38 39 40 41 42 43 44 45 46 47 48 49 50
000
ASUS41 KCTP 260810
RWRCTP

REGIONAL WEATHER ROUNDUP
NATIONAL WEATHER SERVICE STATE COLLEGE PA
400 AM EDT THU APR 26 2018

Note: "fair" indicates few or no clouds below 12,000 feet with no
significant weather and/or obstructions to visibility.

* = STATION THAT DOES NOT REPORT PRECIPITATION /E.G. RAIN...SNOW...ETC/
    THUNDER OR FOG.

PAZ002>004-007>009-013>016-020>023-029>032-260900-
WESTERN PENNSYLVANIA

CITY           SKY/WX    TMP DP  RH WIND       PRES   REMARKS
ERIE           CLOUDY    39  34  82 W8        29.88R
MEADVILLE      CLOUDY    35  33  92 W8        29.86S
FRANKLIN*      CLOUDY    36  33  89 VRB7      29.86R
NEW CASTLE     CLOUDY    39  35  86 NW6       29.91R
BEAVER COUNTY  NOT AVBL
BUTLER*        CLOUDY    39  34  82 W9        29.88S
PITTSBURGH INT CLOUDY    40  37  89 NW6       29.88S
PITTSBURGH     MOCLDY    39  36  89 NW5       29.87R
INDIANA*       CLOUDY    41  37  87 NW6       29.88R
LATROBE        CLOUDY    41  39  93 W7        29.88S
WASHINGTON CO* FAIR      38  36  92 N5        29.92R
$$

PAZ004>006-010>012-017>019-024>028-033>037-041-042-045-046-049>053-260900-
CENTRAL PENNSYLVANIA

CITY           SKY/WX    TMP DP  RH WIND       PRES   REMARKS
BRADFORD       CLOUDY    35  33  92 W10       29.77S FOG
DUBOIS         CLOUDY    38  35  89 W12       29.80R
CLEARFIELD     CLOUDY    42  35  76 W9        29.80R
JOHNSTOWN      CLOUDY    39  35  86 W12       29.81R
ALTOONA        CLOUDY    45  35  68 NW13G23   29.82R
STATE COLLEGE  CLOUDY    44  37  75 W9        29.79R
WILLIAMSPORT   FAIR      48  38  68 W10       29.73R
SELINSGROVE    MOCLDY    47  37  68 NW7       29.76R
FT INDIANTOWN  FAIR      48  37  65 SW8       29.73R
CAPITAL CITY   FAIR      49  37  63 W5        29.76R
HARRISBURG     FAIR      49  38  65 NW17      29.75R
YORK           FAIR      45  38  76 W5        29.77R
$$

PAZ038>040-043-044-047-048-054-055-060>062-067>071-260900-
EASTERN PENNSYLVANIA

CITY           SKY/WX    TMP DP  RH WIND       PRES   REMARKS
SCRANTON       CLOUDY    51  47  86 NW6       29.68R
MOUNT POCONO   MOCLDY    47  47 100 W14G23    29.64S
ALLENTOWN      CLOUDY    57  48  72 W7        29.66R
QUAKERTOWN*    CLOUDY    55  52  88 W7        29.67R
READING        FAIR      51  43  74 NW14      29.71R
LANCASTER      FAIR      47  40  76 W14       29.73R
COATESVILLE    FAIR      48  41  76 W14G21    29.73R
POTTSTOWN      FAIR      53  47  79 W13G21    29.70R
BLUE BELL      FAIR      54  50  87 W7        29.69R
DOYLESTOWN     CLOUDY    57  51  80 NW6       29.65R
WILLOW GROVE   NOT AVBL
NORTH PHILA    CLOUDY    60  52  74 W13G21    29.67R
PHILADELPHIA   MOCLDY    59  49  69 NW13      29.67R
$$



USA.gov is the U.S. government's official web portal to all federal, state and local government web resources and services.